| time (UTC) | temp F | wind direction | speed knots | gust knots | rain 1hr in | rain 24hr in | rain mn in | humidity % | barometer mb |
| 20260504150322 | 65 | 267 | 0.9 | 1.7 | 0.00 | 0.00 | 0.00 | 55 | 1009.3 |
| 20260504141252 | 64 | 241 | 0.9 | 0.9 | 0.00 | 0.00 | 0.00 | 53 | 1009.2 |
| 20260504140749 | 62 | 249 | 0.0 | 0.0 | 0.00 | 0.00 | 0.00 | 53 | 1009.4 |
| 20260504140244 | 63 | 254 | 3.5 | 4.3 | 0.00 | 0.00 | 0.00 | 54 | 1009.3 |
| 20260504130713 | 59 | 255 | 0.9 | 1.7 | 0.00 | 0.00 | 0.00 | 59 | 1009.9 |
| 20260504130209 | 58 | 213 | 2.6 | 4.3 | 0.00 | 0.00 | 0.00 | 60 | 1009.8 |
| 20260504120133 | 55 | 216 | 3.5 | 5.2 | 0.00 | 0.00 | 0.00 | 62 | 1009.7 |
| 20260504110600 | 48 | 253 | 0.0 | 0.0 | 0.00 | 0.00 | 0.00 | 79 | 1009.7 |
| 20260504100522 | 43 | 250 | 0.0 | 0.0 | 0.00 | 0.00 | 0.00 | 94 | 1010.0 |
| 20260504081915 | 42 | 251 | 0.0 | 0.0 | 0.00 | 0.00 | 0.00 | 96 | 1010.5 |
| 20260504081412 | 42 | 254 | 0.0 | 0.0 | 0.00 | 0.00 | 0.00 | 96 | 1010.9 |
| 20260504080908 | 42 | 252 | 0.0 | 0.0 | 0.00 | 0.00 | 0.00 | 96 | 1010.8 |
| 20260504080405 | 42 | 252 | 0.0 | 0.0 | 0.00 | 0.00 | 0.00 | 96 | 1011.0 |
| 20260504070333 | 41 | 253 | 0.0 | 0.0 | 0.00 | 0.00 | 0.00 | 96 | 1011.6 |
| 20260504050721 | 41 | 259 | 0.0 | 0.0 | 0.00 | 0.00 | 0.00 | 96 | 1012.5 |
| 20260504050218 | 41 | 259 | 0.0 | 0.0 | 0.00 | 0.00 | 0.00 | 96 | 1012.3 |
| 20260504045715 | 41 | 254 | 0.0 | 0.0 | 0.00 | 0.00 | 0.00 | 96 | 1012.5 |
| 20260504045215 | 41 | 253 | 0.0 | 0.0 | 0.00 | 0.00 | 0.00 | 96 | 1012.5 |
| 20260504044713 | 40 | 257 | 0.0 | 0.0 | 0.00 | 0.00 | 0.00 | 97 | 1012.5 |
| 20260504044210 | 40 | 257 | 0.0 | 0.0 | 0.00 | 0.00 | 0.00 | 97 | 1012.3 |
| 20260504043707 | 40 | 255 | 0.0 | 0.0 | 0.00 | 0.00 | 0.00 | 96 | 1012.3 |
| 20260504043204 | 40 | 254 | 0.0 | 0.0 | 0.00 | 0.00 | 0.00 | 96 | 1012.5 |
| 20260504042702 | 40 | 255 | 0.0 | 0.0 | 0.00 | 0.00 | 0.00 | 96 | 1012.7 |
| 20260504042158 | 40 | 255 | 0.0 | 0.0 | 0.00 | 0.00 | 0.00 | 95 | 1012.5 |
| 20260504041654 | 40 | 254 | 0.0 | 0.0 | 0.00 | 0.00 | 0.00 | 95 | 1012.6 |
| 20260504041150 | 40 | 254 | 0.0 | 0.0 | 0.00 | 0.00 | 0.00 | 95 | 1012.6 |
| 20260504040647 | 40 | 255 | 0.0 | 0.0 | 0.00 | 0.00 | 0.00 | 94 | 1012.9 |
| 20260504040144 | 40 | 260 | 0.0 | 0.0 | 0.00 | 0.00 | 0.00 | 94 | 1012.7 |
| 20260504035641 | 40 | 252 | 0.0 | 0.0 | 0.00 | 0.00 | 0.00 | 94 | 1012.7 |
| 20260504035137 | 40 | 248 | 0.0 | 0.0 | 0.00 | 0.00 | 0.00 | 94 | 1013.0 |
| 20260504034635 | 41 | 254 | 0.0 | 0.0 | 0.00 | 0.00 | 0.00 | 94 | 1012.7 |
| 20260504034132 | 41 | 254 | 0.0 | 0.0 | 0.00 | 0.00 | 0.00 | 93 | 1012.7 |
| 20260504033630 | 41 | 254 | 0.0 | 0.0 | 0.00 | 0.00 | 0.00 | 93 | 1012.6 |
| 20260504033127 | 41 | 254 | 0.0 | 0.0 | 0.00 | 0.00 | 0.00 | 92 | 1012.3 |
| 20260504032624 | 41 | 254 | 0.0 | 0.0 | 0.00 | 0.00 | 0.00 | 92 | 1012.7 |
| 20260504032120 | 42 | 254 | 0.0 | 0.0 | 0.00 | 0.00 | 0.00 | 92 | 1012.5 |
| 20260504031618 | 42 | 254 | 0.0 | 0.0 | 0.00 | 0.00 | 0.00 | 91 | 1012.5 |
| 20260504031114 | 42 | 250 | 0.0 | 0.0 | 0.00 | 0.00 | 0.00 | 90 | 1012.4 |
| 20260504030611 | 42 | 250 | 0.0 | 0.0 | 0.00 | 0.00 | 0.00 | 90 | 1012.6 |
| 20260504030108 | 42 | 250 | 0.0 | 0.0 | 0.00 | 0.00 | 0.00 | 89 | 1012.5 |
| 20260504025604 | 42 | 250 | 0.0 | 0.0 | 0.00 | 0.00 | 0.00 | 87 | 1012.4 |
| 20260504025101 | 43 | 250 | 0.0 | 0.0 | 0.00 | 0.00 | 0.00 | 87 | 1012.7 |
| 20260504024558 | 43 | 250 | 0.0 | 0.0 | 0.00 | 0.00 | 0.00 | 87 | 1012.5 |
| 20260504024055 | 43 | 250 | 0.0 | 0.0 | 0.00 | 0.00 | 0.00 | 86 | 1012.7 |
| 20260504023551 | 43 | 250 | 0.0 | 0.0 | 0.00 | 0.00 | 0.00 | 85 | 1012.5 |
| 20260504023048 | 44 | 250 | 0.0 | 0.0 | 0.00 | 0.00 | 0.00 | 84 | 1012.5 |
| 20260504022543 | 44 | 250 | 0.0 | 0.0 | 0.00 | 0.00 | 0.00 | 83 | 1012.6 |
| 20260504022040 | 44 | 250 | 0.0 | 0.0 | 0.00 | 0.00 | 0.00 | 82 | 1012.9 |
| 20260504021538 | 45 | 250 | 0.0 | 0.0 | 0.00 | 0.00 | 0.00 | 79 | 1012.5 |
| 20260504021034 | 45 | 250 | 0.0 | 0.0 | 0.00 | 0.00 | 0.00 | 76 | 1012.5 |
| 20260504020531 | 46 | 250 | 0.0 | 0.0 | 0.00 | 0.00 | 0.00 | 73 | 1012.5 |
| 20260504020028 | 46 | 250 | 0.0 | 0.0 | 0.00 | 0.00 | 0.00 | 71 | 1012.7 |
| 20260504015524 | 47 | 250 | 0.0 | 0.0 | 0.00 | 0.00 | 0.00 | 69 | 1012.7 |
| 20260504015020 | 48 | 250 | 0.0 | 0.0 | 0.00 | 0.00 | 0.00 | 68 | 1012.6 |
| 20260504014516 | 48 | 250 | 0.0 | 0.0 | 0.00 | 0.00 | 0.00 | 67 | 1012.5 |
| 20260504014014 | 49 | 250 | 0.0 | 0.0 | 0.00 | 0.00 | 0.00 | 65 | 1012.6 |
| 20260504013512 | 49 | 250 | 0.0 | 0.0 | 0.00 | 0.00 | 0.00 | 64 | 1012.5 |
| 20260504013009 | 50 | 250 | 0.0 | 0.0 | 0.00 | 0.00 | 0.00 | 63 | 1012.5 |
| 20260504012506 | 50 | 250 | 0.0 | 0.0 | 0.00 | 0.00 | 0.00 | 62 | 1012.7 |
| 20260504012004 | 51 | 250 | 0.0 | 0.0 | 0.00 | 0.00 | 0.00 | 61 | 1012.4 |
| 20260504011500 | 51 | 250 | 0.0 | 0.0 | 0.00 | 0.00 | 0.00 | 60 | 1012.5 |
| 20260504010955 | 51 | 249 | 0.0 | 0.0 | 0.00 | 0.00 | 0.00 | 59 | 1012.5 |
| 20260504010452 | 52 | 249 | 0.0 | 0.0 | 0.00 | 0.00 | 0.00 | 57 | 1012.6 |
| 20260504005948 | 53 | 249 | 0.0 | 0.0 | 0.00 | 0.00 | 0.00 | 57 | 1012.4 |
| 20260504005445 | 53 | 249 | 0.0 | 0.0 | 0.00 | 0.00 | 0.00 | 55 | 1012.6 |
| 20260504004943 | 54 | 249 | 0.0 | 0.0 | 0.00 | 0.00 | 0.00 | 55 | 1012.4 |
| 20260504004440 | 54 | 249 | 0.0 | 0.9 | 0.00 | 0.00 | 0.00 | 52 | 1012.3 |
| 20260504003937 | 55 | 241 | 0.9 | 0.9 | 0.00 | 0.00 | 0.00 | 51 | 1012.4 |
| 20260504003433 | 55 | 251 | 0.0 | 0.9 | 0.00 | 0.00 | 0.00 | 52 | 1012.3 |
| 20260504002930 | 55 | 251 | 0.0 | 0.9 | 0.00 | 0.00 | 0.00 | 50 | 1012.4 |
| 20260504002427 | 56 | 250 | 0.0 | 0.9 | 0.00 | 0.00 | 0.00 | 51 | 1012.5 |
| 20260504001924 | 56 | 248 | 0.9 | 0.9 | 0.00 | 0.00 | 0.00 | 49 | 1012.5 |
| 20260504001422 | 56 | 249 | 0.0 | 0.9 | 0.00 | 0.00 | 0.00 | 50 | 1012.4 |
| 20260504000918 | 57 | 238 | 1.7 | 1.7 | 0.00 | 0.00 | 0.00 | 48 | 1012.2 |
| 20260504000416 | 57 | 251 | 0.0 | 0.0 | 0.00 | 0.00 | 0.00 | 48 | 1012.3 |
| 20260503235912 | 57 | 246 | 0.9 | 0.9 | 0.00 | 0.00 | 0.00 | 47 | 1012.4 |
| 20260503235410 | 57 | 248 | 0.9 | 0.9 | 0.00 | 0.00 | 0.00 | 47 | 1012.3 |
| 20260503234908 | 57 | 262 | 0.9 | 1.7 | 0.00 | 0.00 | 0.00 | 45 | 1012.6 |
| 20260503234405 | 57 | 256 | 0.0 | 0.9 | 0.00 | 0.00 | 0.00 | 47 | 1012.4 |
| 20260503233903 | 57 | 265 | 1.7 | 2.6 | 0.00 | 0.00 | 0.00 | 45 | 1012.4 |
| 20260503233359 | 57 | 252 | 0.0 | 0.9 | 0.00 | 0.00 | 0.00 | 45 | 1012.3 |
| 20260503232855 | 58 | 256 | 0.0 | 0.0 | 0.00 | 0.00 | 0.00 | 46 | 1012.2 |
| 20260503232353 | 58 | 257 | 0.9 | 1.7 | 0.00 | 0.00 | 0.00 | 45 | 1012.3 |
| 20260503231850 | 58 | 269 | 1.7 | 2.6 | 0.00 | 0.00 | 0.00 | 45 | 1012.3 |
| 20260503231347 | 58 | 254 | 1.7 | 1.7 | 0.00 | 0.00 | 0.00 | 45 | 1012.3 |
| 20260503230843 | 58 | 252 | 1.7 | 1.7 | 0.00 | 0.00 | 0.00 | 44 | 1012.2 |
| 20260503230340 | 58 | 238 | 1.7 | 1.7 | 0.00 | 0.00 | 0.00 | 44 | 1012.2 |
| 20260503225838 | 59 | 288 | 1.7 | 1.7 | 0.00 | 0.00 | 0.00 | 44 | 1012.2 |
| 20260503225334 | 59 | 236 | 4.3 | 7.8 | 0.00 | 0.00 | 0.00 | 43 | 1012.4 |
| 20260503224830 | 59 | 253 | 2.6 | 2.6 | 0.00 | 0.00 | 0.00 | 42 | 1012.2 |
| 20260503224327 | 59 | 240 | 4.3 | 6.1 | 0.00 | 0.00 | 0.00 | 41 | 1012.2 |
| 20260503223825 | 60 | 250 | 4.3 | 7.0 | 0.00 | 0.00 | 0.00 | 43 | 1012.4 |
| 20260503223323 | 60 | 251 | 2.6 | 2.6 | 0.00 | 0.00 | 0.00 | 42 | 1012.3 |
| 20260503222818 | 60 | 261 | 1.7 | 2.6 | 0.00 | 0.00 | 0.00 | 42 | 1012.3 |
| 20260503222317 | 60 | 262 | 1.7 | 1.7 | 0.00 | 0.00 | 0.00 | 42 | 1012.5 |
| 20260503221815 | 60 | 206 | 3.5 | 5.2 | 0.00 | 0.00 | 0.00 | 39 | 1012.5 |
| 20260503221313 | 60 | 249 | 0.9 | 1.7 | 0.00 | 0.00 | 0.00 | 42 | 1012.5 |
| 20260503220809 | 60 | 254 | 0.0 | 0.0 | 0.00 | 0.00 | 0.00 | 40 | 1012.5 |
| 20260503220306 | 60 | 190 | 3.5 | 5.2 | 0.00 | 0.00 | 0.00 | 39 | 1012.5 |
| 20260503215802 | 60 | 273 | 2.6 | 4.3 | 0.00 | 0.00 | 0.00 | 40 | 1012.5 |
| 20260503215259 | 61 | 301 | 2.6 | 4.3 | 0.00 | 0.00 | 0.00 | 39 | 1012.5 |
| 20260503214757 | 61 | 246 | 0.9 | 0.9 | 0.00 | 0.00 | 0.00 | 39 | 1012.1 |
| 20260503214254 | 60 | 228 | 1.7 | 1.7 | 0.00 | 0.00 | 0.00 | 40 | 1012.3 |
| 20260503213752 | 60 | 284 | 0.9 | 0.9 | 0.00 | 0.00 | 0.00 | 40 | 1012.3 |
| 20260503213249 | 61 | 263 | 0.9 | 2.6 | 0.00 | 0.00 | 0.00 | 41 | 1012.2 |
| 20260503212746 | 62 | 260 | 1.7 | 2.6 | 0.00 | 0.00 | 0.00 | 40 | 1012.3 |
| 20260503212243 | 61 | 267 | 1.7 | 2.6 | 0.00 | 0.00 | 0.00 | 39 | 1012.1 |
| 20260503211741 | 62 | 297 | 3.5 | 4.3 | 0.00 | 0.00 | 0.00 | 39 | 1012.1 |
| 20260503211237 | 63 | 217 | 1.7 | 1.7 | 0.00 | 0.00 | 0.00 | 38 | 1012.2 |
| 20260503210732 | 62 | 284 | 2.6 | 2.6 | 0.00 | 0.00 | 0.00 | 39 | 1012.2 |
| 20260503210230 | 61 | 258 | 0.0 | 0.9 | 0.00 | 0.00 | 0.00 | 39 | 1012.3 |
| 20260503205725 | 63 | 257 | 1.7 | 1.7 | 0.00 | 0.00 | 0.00 | 37 | 1012.5 |
| 20260503205222 | 62 | 240 | 1.7 | 4.3 | 0.00 | 0.00 | 0.00 | 38 | 1012.4 |
| 20260503204718 | 62 | 319 | 3.5 | 7.0 | 0.00 | 0.00 | 0.00 | 39 | 1012.7 |
| 20260503204216 | 61 | 327 | 1.7 | 4.3 | 0.00 | 0.00 | 0.00 | 42 | 1012.4 |
| 20260503203713 | 59 | 266 | 0.9 | 1.7 | 0.00 | 0.00 | 0.00 | 42 | 1012.5 |
| 20260503203211 | 60 | 257 | 3.5 | 5.2 | 0.00 | 0.00 | 0.00 | 40 | 1012.4 |
| 20260503202708 | 60 | 274 | 1.7 | 1.7 | 0.00 | 0.00 | 0.00 | 43 | 1012.9 |
| 20260503202206 | 60 | 251 | 2.6 | 2.6 | 0.00 | 0.00 | 0.00 | 41 | 1012.7 |
| 20260503201703 | 60 | 253 | 0.9 | 0.9 | 0.00 | 0.00 | 0.00 | 40 | 1012.9 |
| 20260503201200 | 61 | 263 | 2.6 | 2.6 | 0.00 | 0.00 | 0.00 | 40 | 1013.0 |
| 20260503200656 | 62 | 265 | 1.7 | 1.7 | 0.00 | 0.00 | 0.00 | 39 | 1013.1 |
| 20260503200153 | 61 | 209 | 2.6 | 2.6 | 0.00 | 0.00 | 0.00 | 41 | 1013.2 |
| 20260503195650 | 63 | 246 | 0.9 | 1.7 | 0.00 | 0.00 | 0.00 | 39 | 1013.2 |
| 20260503195147 | 62 | 279 | 1.7 | 1.7 | 0.00 | 0.00 | 0.00 | 43 | 1013.1 |
| 20260503194644 | 60 | 300 | 2.6 | 2.6 | 0.00 | 0.00 | 0.00 | 40 | 1013.4 |
| 20260503194139 | 61 | 283 | 3.5 | 4.3 | 0.00 | 0.00 | 0.00 | 41 | 1013.7 |
| 20260503193637 | 60 | 252 | 0.9 | 0.9 | 0.00 | 0.00 | 0.00 | 46 | 1013.5 |
| 20260503193132 | 60 | 300 | 4.3 | 7.0 | 0.00 | 0.00 | 0.00 | 42 | 1013.6 |
| 20260503192628 | 61 | 271 | 1.7 | 2.6 | 0.00 | 0.00 | 0.00 | 42 | 1013.9 |
| 20260503192124 | 61 | 213 | 4.3 | 7.0 | 0.00 | 0.00 | 0.00 | 41 | 1013.8 |
| 20260503191621 | 60 | 277 | 1.7 | 2.6 | 0.00 | 0.00 | 0.00 | 43 | 1013.9 |
| 20260503191118 | 60 | 100 | 1.7 | 2.6 | 0.00 | 0.00 | 0.00 | 42 | 1014.0 |
| 20260503190615 | 61 | 52 | 0.9 | 2.6 | 0.00 | 0.00 | 0.00 | 43 | 1014.1 |
| 20260503190112 | 61 | 296 | 5.2 | 6.1 | 0.00 | 0.00 | 0.00 | 43 | 1013.9 |
| 20260503185608 | 61 | 273 | 3.5 | 4.3 | 0.00 | 0.00 | 0.00 | 43 | 1014.0 |
| 20260503185108 | 61 | 282 | 2.6 | 5.2 | 0.00 | 0.00 | 0.00 | 43 | 1014.1 |
| 20260503184604 | 61 | 254 | 2.6 | 2.6 | 0.00 | 0.00 | 0.00 | 44 | 1014.2 |
| 20260503184100 | 61 | 255 | 1.7 | 1.7 | 0.00 | 0.00 | 0.00 | 45 | 1014.2 |
| 20260503183557 | 61 | 257 | 1.7 | 2.6 | 0.00 | 0.00 | 0.00 | 42 | 1014.3 |
| 20260503183054 | 62 | 323 | 2.6 | 5.2 | 0.00 | 0.00 | 0.00 | 41 | 1014.4 |
| 20260503182553 | 60 | 238 | 1.7 | 2.6 | 0.00 | 0.00 | 0.00 | 42 | 1014.4 |
| 20260503182050 | 59 | 279 | 2.6 | 2.6 | 0.00 | 0.00 | 0.00 | 48 | 1014.3 |
| 20260503181547 | 60 | 287 | 0.9 | 2.6 | 0.00 | 0.00 | 0.00 | 45 | 1014.5 |
| 20260503181043 | 62 | 254 | 2.6 | 5.2 | 0.00 | 0.00 | 0.00 | 46 | 1014.6 |
| 20260503180541 | 61 | 259 | 1.7 | 2.6 | 0.00 | 0.00 | 0.00 | 47 | 1014.4 |
| 20260503180038 | 61 | 113 | 1.7 | 2.6 | 0.00 | 0.00 | 0.00 | 46 | 1014.7 |
| 20260503175535 | 60 | 270 | 1.7 | 1.7 | 0.00 | 0.00 | 0.00 | 45 | 1014.6 |
| 20260503175033 | 61 | 276 | 2.6 | 4.3 | 0.00 | 0.00 | 0.00 | 43 | 1014.6 |
| 20260503174530 | 61 | 286 | 2.6 | 2.6 | 0.00 | 0.00 | 0.00 | 46 | 1014.8 |
| 20260503174026 | 60 | 249 | 3.5 | 4.3 | 0.00 | 0.00 | 0.00 | 40 | 1015.0 |
| 20260503173521 | 60 | 227 | 2.6 | 5.2 | 0.00 | 0.00 | 0.00 | 44 | 1014.8 |
| 20260503173017 | 60 | 100 | 2.6 | 4.3 | 0.00 | 0.00 | 0.00 | 45 | 1015.0 |
| 20260503172515 | 60 | 275 | 4.3 | 5.2 | 0.00 | 0.00 | 0.00 | 43 | 1014.9 |
| 20260503172012 | 59 | 264 | 2.6 | 2.6 | 0.00 | 0.00 | 0.00 | 47 | 1014.7 |
| 20260503171508 | 60 | 227 | 1.7 | 4.3 | 0.00 | 0.00 | 0.00 | 45 | 1015.1 |
| 20260503171006 | 60 | 266 | 1.7 | 2.6 | 0.00 | 0.00 | 0.00 | 44 | 1015.1 |
| 20260503170502 | 60 | 262 | 0.9 | 1.7 | 0.00 | 0.00 | 0.00 | 46 | 1015.1 |
| 20260503150855 | 55 | 259 | 0.9 | 0.9 | 0.00 | 0.00 | 0.00 | 48 | 1016.0 |